FAB2009 SBMN-SWUQ

Flight info

Callsign FAB2009
Flight time 1h 28m
Altitude 20000
Route DCT 0 9 18S 61 48 57W DCT
Aircraft C97/L-SDE3/C

Departure

Time 2026-04-24 09:05
Airport Ponta Pelada Airport / Manaus Air Base (SBMN)

Arrival

Time 2026-04-24 10:33
Airport Surucucu Airport (SWUQ)
Time Latitude Longitude Altitude Speed Heading
2026-04-24 08:56 -3.14406 -59.98397 273 ft 0 kts 158°
2026-04-24 09:00 -3.14407 -59.98397 273 ft 3 kts 158°
2026-04-24 09:00 -3.14468 -59.98383 273 ft 0 kts 212°
2026-04-24 09:00 -3.14488 -59.98431 273 ft 19 kts 255°
2026-04-24 09:01 -3.14512 -59.98521 273 ft 16 kts 256°
2026-04-24 09:01 -3.14536 -59.98628 273 ft 13 kts 258°
2026-04-24 09:01 -3.14559 -59.98736 273 ft 13 kts 258°
2026-04-24 09:01 -3.14581 -59.98842 273 ft 16 kts 258°
2026-04-24 09:02 -3.14602 -59.98940 273 ft 17 kts 258°
2026-04-24 09:02 -3.14618 -59.99044 273 ft 15 kts 269°
2026-04-24 09:02 -3.14624 -59.99151 273 ft 14 kts 262°
2026-04-24 09:02 -3.14640 -59.99255 273 ft 15 kts 260°
2026-04-24 09:03 -3.14664 -59.99359 273 ft 16 kts 252°
2026-04-24 09:03 -3.14702 -59.99454 273 ft 16 kts 255°
2026-04-24 09:03 -3.14729 -59.99556 273 ft 14 kts 255°
2026-04-24 09:03 -3.14781 -59.99612 273 ft 12 kts 168°
2026-04-24 09:04 -3.14832 -59.99583 273 ft 3 kts 103°
2026-04-24 09:04 -3.14821 -59.99510 273 ft 33 kts 76°
2026-04-24 09:04 -3.14693 -59.98993 273 ft 113 kts 76°
2026-04-24 09:04 -3.14480 -59.98162 555 ft 134 kts 76°
2026-04-24 09:05 -3.14245 -59.97159 936 ft 159 kts 76°
2026-04-24 09:05 -3.13957 -59.96016 1357 ft 178 kts 75°
2026-04-24 09:05 -3.13384 -59.94882 1738 ft 194 kts 49°
2026-04-24 09:05 -3.12214 -59.94136 2137 ft 207 kts 18°
2026-04-24 09:06 -3.10764 -59.94061 2525 ft 217 kts 349°
2026-04-24 09:06 -3.09381 -59.94712 2918 ft 224 kts 323°
2026-04-24 09:06 -3.08247 -59.95793 3311 ft 231 kts 313°
2026-04-24 09:06 -3.07154 -59.97003 3694 ft 237 kts 312°
2026-04-24 09:07 -3.06000 -59.98209 4077 ft 241 kts 315°
2026-04-24 09:07 -3.04780 -59.99354 4453 ft 244 kts 319°
2026-04-24 09:07 -3.02112 -60.01515 5211 ft 250 kts 322°
2026-04-24 09:08 -3.00695 -60.02545 5590 ft 252 kts 323°
2026-04-24 09:08 -2.99247 -60.03548 5968 ft 253 kts 323°
2026-04-24 09:08 -2.97783 -60.04530 6343 ft 254 kts 323°
2026-04-24 09:08 -2.96290 -60.05509 6721 ft 256 kts 323°
2026-04-24 09:09 -2.94793 -60.06480 7097 ft 257 kts 323°
2026-04-24 09:09 -2.93304 -60.07439 7469 ft 258 kts 323°
2026-04-24 09:09 -2.91782 -60.08412 7846 ft 259 kts 324°
2026-04-24 09:09 -2.90250 -60.09387 8224 ft 260 kts 324°
2026-04-24 09:10 -2.88730 -60.10350 8596 ft 261 kts 324°
2026-04-24 09:10 -2.87190 -60.11323 8972 ft 262 kts 324°
2026-04-24 09:10 -2.85629 -60.12307 9351 ft 263 kts 324°
2026-04-24 09:10 -2.84070 -60.13289 9728 ft 264 kts 324°
2026-04-24 09:11 -2.82523 -60.14262 10100 ft 265 kts 324°
2026-04-24 09:11 -2.80954 -60.15249 10477 ft 266 kts 324°
2026-04-24 09:11 -2.79379 -60.16239 10853 ft 267 kts 324°
2026-04-24 09:11 -2.77813 -60.17222 11226 ft 268 kts 324°
2026-04-24 09:12 -2.76226 -60.18219 11602 ft 269 kts 324°
2026-04-24 09:12 -2.74629 -60.19222 11980 ft 270 kts 324°
2026-04-24 09:12 -2.73027 -60.20228 12357 ft 271 kts 324°
2026-04-24 09:12 -2.71437 -60.21226 12730 ft 272 kts 324°
2026-04-24 09:13 -2.69822 -60.22240 13107 ft 273 kts 324°
2026-04-24 09:13 -2.68219 -60.23246 13480 ft 274 kts 324°
2026-04-24 09:13 -2.66597 -60.24264 13856 ft 275 kts 324°
2026-04-24 09:13 -2.64961 -60.25291 14234 ft 276 kts 324°
2026-04-24 09:14 -2.63344 -60.26306 14606 ft 277 kts 324°
2026-04-24 09:14 -2.61698 -60.27339 14984 ft 278 kts 324°
2026-04-24 09:14 -2.60051 -60.28373 15360 ft 279 kts 324°
2026-04-24 09:14 -2.58421 -60.29395 15731 ft 280 kts 324°
2026-04-24 09:15 -2.56770 -60.30431 16107 ft 280 kts 324°
2026-04-24 09:15 -2.55112 -60.31471 16484 ft 280 kts 324°
2026-04-24 09:15 -2.53452 -60.32513 16781 ft 282 kts 324°
2026-04-24 09:15 -2.51799 -60.33551 17033 ft 285 kts 324°
2026-04-24 09:16 -2.50102 -60.34617 17286 ft 287 kts 324°
2026-04-24 09:16 -2.48425 -60.35670 17534 ft 288 kts 324°
2026-04-24 09:16 -2.46720 -60.36739 17786 ft 288 kts 324°
2026-04-24 09:16 -2.45026 -60.37801 18035 ft 289 kts 324°
2026-04-24 09:17 -2.43320 -60.38871 18286 ft 289 kts 324°
2026-04-24 09:17 -2.41614 -60.39941 18536 ft 289 kts 324°
2026-04-24 09:17 -2.39904 -60.41013 18787 ft 289 kts 324°
2026-04-24 09:17 -2.38196 -60.42084 19037 ft 289 kts 324°
2026-04-24 09:18 -2.36509 -60.43142 19285 ft 289 kts 324°
2026-04-24 09:18 -2.34816 -60.44203 19534 ft 288 kts 324°
2026-04-24 09:18 -2.33108 -60.45275 19768 ft 289 kts 324°
2026-04-24 09:18 -2.31391 -60.46352 19913 ft 292 kts 324°
2026-04-24 09:19 -2.29657 -60.47442 19988 ft 296 kts 324°
2026-04-24 09:19 -2.27917 -60.48535 20002 ft 301 kts 324°
2026-04-24 09:19 -2.26123 -60.49663 20002 ft 304 kts 324°
2026-04-24 09:19 -2.24333 -60.50786 20001 ft 307 kts 324°
2026-04-24 09:20 -2.22518 -60.51925 20001 ft 308 kts 324°
2026-04-24 09:20 -2.20687 -60.53073 20001 ft 309 kts 324°
2026-04-24 09:20 -2.18857 -60.54219 20000 ft 310 kts 324°
2026-04-24 09:20 -2.17025 -60.55368 20000 ft 310 kts 324°
2026-04-24 09:21 -2.15210 -60.56504 20000 ft 311 kts 324°
2026-04-24 09:21 -2.13362 -60.57662 20000 ft 311 kts 324°
2026-04-24 09:21 -2.11550 -60.58798 20000 ft 311 kts 324°
2026-04-24 09:21 -2.09707 -60.59953 20000 ft 311 kts 324°
2026-04-24 09:22 -2.07897 -60.61087 20000 ft 311 kts 324°
2026-04-24 09:22 -2.06518 -60.61951 20000 ft 311 kts 324°
2026-04-24 09:22 -2.05562 -60.62550 20000 ft 311 kts 324°
2026-04-24 09:22 -2.04391 -60.63284 20000 ft 311 kts 324°
2026-04-24 09:23 -2.02554 -60.64436 20000 ft 311 kts 324°
2026-04-24 09:23 -2.00732 -60.65578 20000 ft 311 kts 324°
2026-04-24 09:23 -1.98893 -60.66731 20000 ft 311 kts 324°
2026-04-24 09:23 -1.97051 -60.67885 20000 ft 311 kts 324°
2026-04-24 09:24 -1.95206 -60.69042 20000 ft 311 kts 324°
2026-04-24 09:24 -1.93388 -60.70181 20000 ft 311 kts 324°
2026-04-24 09:24 -1.91548 -60.71335 20000 ft 311 kts 324°
2026-04-24 09:24 -1.89725 -60.72477 20000 ft 311 kts 324°
2026-04-24 09:25 -1.87884 -60.73631 20000 ft 311 kts 324°
2026-04-24 09:25 -1.86045 -60.74784 20000 ft 311 kts 324°
2026-04-24 09:25 -1.84219 -60.75929 20000 ft 311 kts 324°
2026-04-24 09:25 -1.82380 -60.77081 20000 ft 311 kts 324°
2026-04-24 09:26 -1.80537 -60.78237 20000 ft 311 kts 324°
2026-04-24 09:26 -1.78704 -60.79385 20000 ft 311 kts 324°
2026-04-24 09:26 -1.76879 -60.80529 20000 ft 311 kts 324°
2026-04-24 09:26 -1.75036 -60.81684 20000 ft 311 kts 324°
2026-04-24 09:27 -1.73189 -60.82842 20000 ft 311 kts 324°
2026-04-24 09:27 -1.71374 -60.83980 20000 ft 311 kts 324°
2026-04-24 09:27 -1.69527 -60.85137 20000 ft 311 kts 324°
2026-04-24 09:27 -1.67682 -60.86293 20000 ft 311 kts 324°
2026-04-24 09:28 -1.65858 -60.87436 20000 ft 311 kts 324°
2026-04-24 09:28 -1.64009 -60.88595 20000 ft 311 kts 324°
2026-04-24 09:28 -1.62196 -60.89731 20000 ft 312 kts 324°
2026-04-24 09:28 -1.60352 -60.90887 20000 ft 312 kts 324°
2026-04-24 09:29 -1.58508 -60.92042 20000 ft 312 kts 324°
2026-04-24 09:29 -1.56687 -60.93183 20000 ft 312 kts 324°
2026-04-24 09:29 -1.54846 -60.94337 20000 ft 312 kts 324°
2026-04-24 09:29 -1.53005 -60.95490 20000 ft 312 kts 324°
2026-04-24 09:30 -1.51163 -60.96645 20000 ft 312 kts 324°
2026-04-24 09:30 -1.49344 -60.97784 20000 ft 312 kts 324°
2026-04-24 09:30 -1.47503 -60.98938 20000 ft 312 kts 324°
2026-04-24 09:30 -1.45678 -61.00081 20000 ft 312 kts 324°
2026-04-24 09:31 -1.43837 -61.01235 20000 ft 312 kts 324°
2026-04-24 09:31 -1.41987 -61.02393 20000 ft 312 kts 324°
2026-04-24 09:31 -1.40163 -61.03536 20000 ft 312 kts 324°
2026-04-24 09:31 -1.38318 -61.04692 20000 ft 312 kts 324°
2026-04-24 09:32 -1.36478 -61.05845 20000 ft 312 kts 324°
2026-04-24 09:32 -1.34654 -61.06987 20000 ft 312 kts 324°
2026-04-24 09:32 -1.33438 -61.07749 20000 ft 312 kts 324°
2026-04-24 09:32 -1.30988 -61.09284 20000 ft 312 kts 324°
2026-04-24 09:33 -1.29145 -61.10438 20000 ft 312 kts 324°
2026-04-24 09:33 -1.27907 -61.11214 20000 ft 312 kts 324°
2026-04-24 09:33 -1.26082 -61.12357 20000 ft 312 kts 324°
2026-04-24 09:33 -1.23642 -61.13885 20000 ft 312 kts 324°
2026-04-24 09:34 -1.21795 -61.15042 20000 ft 312 kts 324°
2026-04-24 09:34 -1.19974 -61.16183 20000 ft 312 kts 324°
2026-04-24 09:34 -1.18749 -61.16950 20000 ft 312 kts 324°
2026-04-24 09:34 -1.16898 -61.18110 20000 ft 312 kts 324°
2026-04-24 09:35 -1.15074 -61.19252 20000 ft 312 kts 324°
2026-04-24 09:35 -1.13228 -61.20408 20000 ft 312 kts 324°
2026-04-24 09:35 -1.11393 -61.21558 20000 ft 312 kts 324°
2026-04-24 09:35 -1.09562 -61.22704 20000 ft 312 kts 324°
2026-04-24 09:36 -1.07718 -61.23860 20000 ft 312 kts 324°
2026-04-24 09:36 -1.05891 -61.25004 20000 ft 312 kts 324°
2026-04-24 09:36 -1.04046 -61.26159 20000 ft 312 kts 324°
2026-04-24 09:36 -1.02209 -61.27310 20000 ft 312 kts 324°
2026-04-24 09:37 -1.00363 -61.28466 20000 ft 312 kts 324°
2026-04-24 09:37 -0.98562 -61.29594 20000 ft 312 kts 324°
2026-04-24 09:37 -0.96703 -61.30758 20000 ft 312 kts 324°
2026-04-24 09:37 -0.94859 -61.31913 20000 ft 312 kts 324°
2026-04-24 09:38 -0.93014 -61.33068 20000 ft 312 kts 324°
2026-04-24 09:38 -0.91177 -61.34219 20000 ft 312 kts 324°
2026-04-24 09:38 -0.89343 -61.35367 20000 ft 312 kts 324°
2026-04-24 09:38 -0.87503 -61.36519 20000 ft 312 kts 324°
2026-04-24 09:39 -0.85659 -61.37674 20000 ft 312 kts 324°
2026-04-24 09:39 -0.83816 -61.38828 20000 ft 312 kts 324°
2026-04-24 09:39 -0.81993 -61.39970 20000 ft 312 kts 324°
2026-04-24 09:39 -0.80152 -61.41123 20000 ft 312 kts 324°
2026-04-24 09:40 -0.78309 -61.42277 20000 ft 312 kts 324°
2026-04-24 09:40 -0.76484 -61.43420 20000 ft 312 kts 324°
2026-04-24 09:40 -0.74640 -61.44574 20000 ft 312 kts 324°
2026-04-24 09:40 -0.72799 -61.45727 20000 ft 312 kts 324°
2026-04-24 09:41 -0.70970 -61.46873 20000 ft 312 kts 324°
2026-04-24 09:41 -0.69127 -61.48026 20000 ft 312 kts 324°
2026-04-24 09:41 -0.67284 -61.49180 20000 ft 312 kts 324°
2026-04-24 09:41 -0.65459 -61.50323 20000 ft 312 kts 324°
2026-04-24 09:42 -0.63619 -61.51476 20000 ft 312 kts 324°
2026-04-24 09:42 -0.61776 -61.52629 20000 ft 312 kts 324°
2026-04-24 09:42 -0.59933 -61.53783 20000 ft 312 kts 324°
2026-04-24 09:42 -0.58108 -61.54926 20000 ft 312 kts 324°
2026-04-24 09:43 -0.56262 -61.56082 20000 ft 312 kts 324°
2026-04-24 09:43 -0.54416 -61.57238 20000 ft 312 kts 324°
2026-04-24 09:43 -0.52592 -61.58380 20000 ft 312 kts 324°
2026-04-24 09:43 -0.50751 -61.59533 20000 ft 312 kts 324°
2026-04-24 09:44 -0.48924 -61.60676 20000 ft 312 kts 324°
2026-04-24 09:44 -0.47070 -61.61837 20000 ft 312 kts 324°
2026-04-24 09:44 -0.45229 -61.62990 20000 ft 312 kts 324°
2026-04-24 09:44 -0.43408 -61.64130 20000 ft 312 kts 324°
2026-04-24 09:45 -0.41559 -61.65288 20000 ft 312 kts 324°
2026-04-24 09:45 -0.39711 -61.66445 20000 ft 312 kts 324°
2026-04-24 09:45 -0.37884 -61.67589 20000 ft 312 kts 324°
2026-04-24 09:45 -0.36035 -61.68747 20000 ft 312 kts 324°
2026-04-24 09:46 -0.34206 -61.69892 20000 ft 312 kts 324°
2026-04-24 09:46 -0.32359 -61.71048 20000 ft 312 kts 324°
2026-04-24 09:46 -0.30516 -61.72202 20000 ft 312 kts 324°
2026-04-24 09:46 -0.28699 -61.73340 20000 ft 312 kts 324°
2026-04-24 09:47 -0.26852 -61.74497 20000 ft 312 kts 324°
2026-04-24 09:47 -0.25010 -61.75650 20000 ft 312 kts 324°
2026-04-24 09:47 -0.23162 -61.76808 20000 ft 312 kts 324°
2026-04-24 09:47 -0.21347 -61.77945 20000 ft 312 kts 324°
2026-04-24 09:48 -0.19506 -61.79098 20000 ft 312 kts 324°
2026-04-24 09:48 -0.17647 -61.80238 20000 ft 312 kts 325°
2026-04-24 09:48 -0.15793 -61.81339 20000 ft 313 kts 326°
2026-04-24 09:48 -0.13901 -61.82444 20000 ft 313 kts 326°
2026-04-24 09:49 -0.12006 -61.83537 20000 ft 313 kts 326°
2026-04-24 09:49 -0.10119 -61.84618 20000 ft 313 kts 326°
2026-04-24 09:49 -0.08242 -61.85688 20000 ft 313 kts 326°
2026-04-24 09:49 -0.06342 -61.86768 20000 ft 313 kts 326°
2026-04-24 09:50 -0.04466 -61.87834 20000 ft 313 kts 326°
2026-04-24 09:50 -0.02569 -61.88909 20000 ft 313 kts 326°
2026-04-24 09:50 -0.00665 -61.89988 20000 ft 313 kts 327°
2026-04-24 09:50 0.01216 -61.91054 20000 ft 313 kts 327°
2026-04-24 09:51 0.03123 -61.92133 20000 ft 313 kts 327°
2026-04-24 09:51 0.05024 -61.93209 20000 ft 313 kts 327°
2026-04-24 09:51 0.06904 -61.94273 20000 ft 313 kts 327°
2026-04-24 09:51 0.08801 -61.95346 20000 ft 313 kts 327°
2026-04-24 09:52 0.10695 -61.96419 20000 ft 313 kts 327°
2026-04-24 09:52 0.12575 -61.97482 20000 ft 313 kts 327°
2026-04-24 09:52 0.14480 -61.98560 20000 ft 313 kts 327°
2026-04-24 09:52 0.16383 -61.99637 20000 ft 313 kts 327°
2026-04-24 09:53 0.18263 -62.00700 20000 ft 313 kts 327°
2026-04-24 09:53 0.20165 -62.01776 20000 ft 313 kts 327°
2026-04-24 09:53 0.22068 -62.02853 20000 ft 313 kts 327°
2026-04-24 09:53 0.23945 -62.03915 20000 ft 313 kts 327°
2026-04-24 09:54 0.25854 -62.04995 20000 ft 313 kts 327°
2026-04-24 09:54 0.27747 -62.06066 20000 ft 313 kts 327°
2026-04-24 09:54 0.29625 -62.07128 20000 ft 313 kts 327°
2026-04-24 09:54 0.31529 -62.08205 20000 ft 313 kts 327°
2026-04-24 09:55 0.33410 -62.09269 20000 ft 313 kts 327°
2026-04-24 09:55 0.35307 -62.10342 20000 ft 313 kts 327°
2026-04-24 09:55 0.37217 -62.11423 20000 ft 313 kts 327°
2026-04-24 09:55 0.39092 -62.12484 20000 ft 313 kts 327°
2026-04-24 09:56 0.40992 -62.13559 20000 ft 313 kts 327°
2026-04-24 09:56 0.42891 -62.14633 20000 ft 313 kts 327°
2026-04-24 09:56 0.44767 -62.15695 20000 ft 313 kts 327°
2026-04-24 09:56 0.46674 -62.16773 20000 ft 313 kts 327°
2026-04-24 09:57 0.48573 -62.17848 20000 ft 313 kts 327°
2026-04-24 09:57 0.50480 -62.18927 20000 ft 313 kts 327°
2026-04-24 09:57 0.52364 -62.19993 20000 ft 313 kts 327°
2026-04-24 09:57 0.54263 -62.21067 20000 ft 313 kts 327°
2026-04-24 09:58 0.56174 -62.22148 20000 ft 313 kts 327°
2026-04-24 09:58 0.58021 -62.23193 20000 ft 313 kts 327°
2026-04-24 09:58 0.59958 -62.24290 20000 ft 313 kts 327°
2026-04-24 09:58 0.61861 -62.25366 20002 ft 313 kts 327°
2026-04-24 09:59 0.63740 -62.26429 20002 ft 313 kts 327°
2026-04-24 09:59 0.65644 -62.27506 20001 ft 313 kts 327°
2026-04-24 09:59 0.67554 -62.28587 20000 ft 313 kts 327°
2026-04-24 09:59 0.69431 -62.29649 20000 ft 313 kts 327°
2026-04-24 10:00 0.71335 -62.30727 20000 ft 313 kts 327°
2026-04-24 10:00 0.73236 -62.31802 20000 ft 313 kts 327°
2026-04-24 10:00 0.75115 -62.32866 20000 ft 313 kts 327°
2026-04-24 10:00 0.77018 -62.33942 20000 ft 313 kts 327°
2026-04-24 10:01 0.78899 -62.35007 20000 ft 313 kts 327°
2026-04-24 10:01 0.80801 -62.36083 20000 ft 313 kts 327°
2026-04-24 10:01 0.82707 -62.37161 20000 ft 313 kts 327°
2026-04-24 10:01 0.84609 -62.38237 20000 ft 313 kts 327°
2026-04-24 10:02 0.86498 -62.39306 20000 ft 313 kts 327°
2026-04-24 10:02 0.88401 -62.40383 20000 ft 313 kts 327°
2026-04-24 10:02 0.90289 -62.41452 20000 ft 313 kts 327°
2026-04-24 10:02 0.92194 -62.42529 20000 ft 313 kts 327°
2026-04-24 10:03 0.94068 -62.43590 20000 ft 313 kts 327°
2026-04-24 10:03 0.95977 -62.44671 20000 ft 313 kts 327°
2026-04-24 10:03 0.97858 -62.45735 20000 ft 313 kts 327°
2026-04-24 10:03 0.99765 -62.46814 20000 ft 313 kts 327°
2026-04-24 10:04 1.01648 -62.47880 20000 ft 313 kts 327°
2026-04-24 10:04 1.03550 -62.48956 20000 ft 313 kts 327°
2026-04-24 10:04 1.05458 -62.50036 20000 ft 313 kts 327°
2026-04-24 10:04 1.07333 -62.51097 20000 ft 313 kts 327°
2026-04-24 10:05 1.09232 -62.52172 20000 ft 313 kts 327°
2026-04-24 10:05 1.11137 -62.53250 20000 ft 313 kts 327°
2026-04-24 10:05 1.13039 -62.54327 20000 ft 313 kts 327°
2026-04-24 10:05 1.14940 -62.55402 20000 ft 313 kts 327°
2026-04-24 10:06 1.16828 -62.56471 20000 ft 313 kts 327°
2026-04-24 10:06 1.20631 -62.58623 20000 ft 313 kts 327°
2026-04-24 10:06 1.22505 -62.59684 20000 ft 313 kts 327°
2026-04-24 10:07 1.24404 -62.60759 20000 ft 313 kts 327°
2026-04-24 10:07 1.26307 -62.61836 20000 ft 313 kts 327°
2026-04-24 10:07 1.28214 -62.62916 20000 ft 313 kts 327°
2026-04-24 10:07 1.30095 -62.63980 20000 ft 313 kts 327°
2026-04-24 10:08 1.32000 -62.65059 20000 ft 313 kts 327°
2026-04-24 10:08 1.33886 -62.66126 20000 ft 313 kts 327°
2026-04-24 10:08 1.35801 -62.67210 20000 ft 313 kts 327°
2026-04-24 10:08 1.37678 -62.68273 20000 ft 313 kts 327°
2026-04-24 10:09 1.39577 -62.69348 20000 ft 313 kts 327°
2026-04-24 10:09 1.41481 -62.70426 20000 ft 313 kts 327°
2026-04-24 10:09 1.43385 -62.71504 20000 ft 313 kts 327°
2026-04-24 10:09 1.45270 -62.72571 20000 ft 313 kts 327°
2026-04-24 10:10 1.47177 -62.73651 20000 ft 313 kts 327°
2026-04-24 10:10 1.49063 -62.74719 20000 ft 313 kts 327°
2026-04-24 10:10 1.50968 -62.75797 20000 ft 313 kts 327°
2026-04-24 10:10 1.52870 -62.76874 20000 ft 313 kts 327°
2026-04-24 10:11 1.54751 -62.77939 20000 ft 313 kts 327°
2026-04-24 10:11 1.56658 -62.79019 20000 ft 313 kts 327°
2026-04-24 10:11 1.58559 -62.80095 20000 ft 313 kts 327°
2026-04-24 10:11 1.60465 -62.81174 20000 ft 313 kts 327°
2026-04-24 10:12 1.62345 -62.82239 20000 ft 313 kts 327°
2026-04-24 10:12 1.64252 -62.83319 20000 ft 313 kts 327°
2026-04-24 10:12 1.66158 -62.84398 20000 ft 313 kts 327°
2026-04-24 10:12 1.68039 -62.85463 19980 ft 312 kts 327°
2026-04-24 10:13 1.69935 -62.86536 19699 ft 311 kts 327°
2026-04-24 10:13 1.71825 -62.87606 19445 ft 310 kts 327°
2026-04-24 10:13 1.73683 -62.88658 19197 ft 310 kts 327°
2026-04-24 10:13 1.75559 -62.89720 18946 ft 309 kts 327°
2026-04-24 10:14 1.77435 -62.90783 18695 ft 309 kts 327°
2026-04-24 10:14 1.79312 -62.91846 18444 ft 309 kts 327°
2026-04-24 10:14 1.81169 -62.92898 18196 ft 310 kts 327°
2026-04-24 10:14 1.83068 -62.93975 17945 ft 315 kts 327°
2026-04-24 10:15 1.84964 -62.95052 17699 ft 318 kts 327°
2026-04-24 10:15 1.86898 -62.96150 17450 ft 321 kts 327°
2026-04-24 10:15 1.88832 -62.97246 17202 ft 322 kts 327°
2026-04-24 10:15 1.90787 -62.98353 16951 ft 323 kts 327°
2026-04-24 10:16 1.92753 -62.99467 16700 ft 323 kts 327°
2026-04-24 10:16 1.94692 -63.00565 16452 ft 323 kts 327°
2026-04-24 10:16 1.96652 -63.01674 16202 ft 323 kts 327°
2026-04-24 10:16 1.98612 -63.02783 15951 ft 321 kts 327°
2026-04-24 10:17 2.00527 -63.03865 15701 ft 312 kts 327°
2026-04-24 10:17 2.02395 -63.04918 15447 ft 303 kts 327°
2026-04-24 10:17 2.04218 -63.05947 15194 ft 297 kts 327°
2026-04-24 10:17 2.05998 -63.06953 14944 ft 294 kts 327°
2026-04-24 10:18 2.07775 -63.07960 14693 ft 292 kts 327°
2026-04-24 10:18 2.08948 -63.08625 14526 ft 290 kts 327°
2026-04-24 10:18 2.10705 -63.09622 14275 ft 289 kts 327°
2026-04-24 10:18 2.13024 -63.10938 13942 ft 287 kts 327°
2026-04-24 10:19 2.14183 -63.11596 13775 ft 287 kts 327°
2026-04-24 10:19 2.15923 -63.12583 13523 ft 286 kts 327°
2026-04-24 10:19 2.17635 -63.13554 13275 ft 285 kts 327°
2026-04-24 10:19 2.19362 -63.14534 13025 ft 284 kts 327°
2026-04-24 10:20 2.21088 -63.15513 12773 ft 284 kts 327°
2026-04-24 10:20 2.22810 -63.16489 12522 ft 283 kts 327°
2026-04-24 10:20 2.24522 -63.17460 12271 ft 282 kts 327°
2026-04-24 10:20 2.26207 -63.18415 12024 ft 281 kts 327°
2026-04-24 10:21 2.27918 -63.19386 11772 ft 281 kts 327°
2026-04-24 10:21 2.29618 -63.20349 11521 ft 280 kts 327°
2026-04-24 10:21 2.31301 -63.21303 11273 ft 279 kts 327°
2026-04-24 10:21 2.32991 -63.22261 11022 ft 279 kts 327°
2026-04-24 10:22 2.34681 -63.23219 10771 ft 278 kts 327°
2026-04-24 10:22 2.36350 -63.24165 10523 ft 277 kts 327°
2026-04-24 10:22 2.38034 -63.25120 10271 ft 277 kts 327°
2026-04-24 10:22 2.39712 -63.26071 10020 ft 276 kts 327°
2026-04-24 10:23 2.41369 -63.27011 9771 ft 275 kts 327°
2026-04-24 10:23 2.43032 -63.27954 9521 ft 275 kts 327°
2026-04-24 10:23 2.44696 -63.28897 9270 ft 274 kts 327°
2026-04-24 10:23 2.46356 -63.29838 9019 ft 273 kts 327°
2026-04-24 10:24 2.47995 -63.30768 8771 ft 273 kts 327°
2026-04-24 10:24 2.49642 -63.31702 8521 ft 272 kts 327°
2026-04-24 10:24 2.51294 -63.32638 8269 ft 270 kts 327°
2026-04-24 10:24 2.52914 -63.33556 8044 ft 265 kts 327°
2026-04-24 10:25 2.54504 -63.34455 7867 ft 258 kts 327°
2026-04-24 10:25 2.56040 -63.35324 7691 ft 253 kts 327°
2026-04-24 10:25 2.57565 -63.36188 7513 ft 249 kts 326°
2026-04-24 10:25 2.59067 -63.37039 7336 ft 246 kts 326°
2026-04-24 10:26 2.60537 -63.37874 7170 ft 243 kts 326°
2026-04-24 10:26 2.61988 -63.38698 7051 ft 240 kts 326°
2026-04-24 10:26 2.63432 -63.39516 7009 ft 234 kts 326°
2026-04-24 10:26 2.64834 -63.40311 7000 ft 228 kts 326°
2026-04-24 10:27 2.66182 -63.41074 6996 ft 220 kts 326°
2026-04-24 10:27 2.67497 -63.41820 6996 ft 214 kts 326°
2026-04-24 10:27 2.68781 -63.42548 6997 ft 208 kts 326°
2026-04-24 10:27 2.70026 -63.43256 6999 ft 208 kts 326°
2026-04-24 10:28 2.71296 -63.43981 7001 ft 210 kts 326°
2026-04-24 10:28 2.72579 -63.44712 7001 ft 212 kts 326°
2026-04-24 10:28 2.73853 -63.45436 7001 ft 213 kts 326°
2026-04-24 10:28 2.75156 -63.46177 7001 ft 214 kts 326°
2026-04-24 10:29 2.76458 -63.46916 7001 ft 215 kts 326°
2026-04-24 10:29 2.77698 -63.47741 6994 ft 212 kts 314°
2026-04-24 10:29 2.78657 -63.48899 6663 ft 219 kts 300°
2026-04-24 10:29 2.79336 -63.50238 6292 ft 211 kts 292°
2026-04-24 10:30 2.79778 -63.51503 5893 ft 178 kts 288°
2026-04-24 10:30 2.80096 -63.52653 5472 ft 169 kts 286°
2026-04-24 10:30 2.80394 -63.53785 5049 ft 167 kts 286°
2026-04-24 10:30 2.80697 -63.54893 4851 ft 165 kts 286°
2026-04-24 10:31 2.81020 -63.56015 4732 ft 176 kts 286°
2026-04-24 10:31 2.81376 -63.57216 4537 ft 177 kts 287°
2026-04-24 10:31 2.81711 -63.58336 4292 ft 160 kts 287°
2026-04-24 10:31 2.82018 -63.59374 4027 ft 152 kts 286°
2026-04-24 10:32 2.82302 -63.60360 3780 ft 146 kts 286°
2026-04-24 10:32 2.82572 -63.61310 3602 ft 138 kts 285°
2026-04-24 10:32 2.82744 -63.61920 3452 ft 136 kts 285°
2026-04-24 10:32 2.83081 -63.63109 3171 ft 131 kts 285°
2026-04-24 10:33 2.83329 -63.63985 2944 ft 131 kts 286°
2026-04-24 10:33 2.83534 -63.64720 2860 ft 57 kts 289°
2026-04-24 10:33 2.83594 -63.64932 2860 ft 20 kts 287°
2026-04-24 10:33 2.83643 -63.64998 2860 ft 3 kts 312°
2026-04-24 10:34 2.83644 -63.64999 2860 ft 0 kts 312°
2026-04-24 10:34 2.83644 -63.65000 2860 ft 0 kts 312°